When you browse on this site, cookies collect data to enhance your experience and personalize the content and advertising you see.
Visit our Privacy Policy to learn more. By continuing to use the site, you agree to this use of cookies and data.
  • In Switzerland
  • List of Countries
  • For 7 days
  • Water Temperature
  • Weather Map
  • Weather Widgets
  • user-avatar
    Login

    Hourly Weather Pabna

    Today, 23 February, Sunday

    Time Temperature Precipitation Wind Pressure Humidity
    00:00 +21°C° 0 mm 0 mps 760 mmHg 38%
    01:00 +23°C° 0 mm 1 mps 760 mmHg 39%
    02:00 +22°C° 0 mm 1 mps 760 mmHg 40%
    03:00 +22°C° 0 mm 1 mps 759 mmHg 41%
    04:00 +21°C° 0 mm 1 mps 759 mmHg 44%
    05:00 +21°C° 0 mm 1 mps 759 mmHg 48%
    06:00 +21°C° 0 mm 1 mps 760 mmHg 49%
    07:00 +23°C° 0 mm 2 mps 760 mmHg 46%
    08:00 +25°C° 0 mm 2 mps 761 mmHg 43%
    09:00 +27°C° 0 mm 2 mps 761 mmHg 40%
    10:00 +29°C° 0 mm 2 mps 761 mmHg 36%
    11:00 +30°C° 0 mm 3 mps 761 mmHg 33%
    12:00 +33°C° 0 mm 3 mps 760 mmHg 29%
    13:00 +33°C° 0 mm 4 mps 759 mmHg 31%
    14:00 +32°C° 0 mm 4 mps 758 mmHg 33%
    15:00 +32°C° 0 mm 5 mps 757 mmHg 34%
    16:00 +30°C° 0 mm 4 mps 757 mmHg 37%
    17:00 +28°C° 0 mm 2 mps 757 mmHg 40%
    18:00 +27°C° 0 mm 1 mps 757 mmHg 43%
    19:00 +26°C° 0 mm 1 mps 757 mmHg 45%
    20:00 +25°C° 0 mm 1 mps 757 mmHg 48%
    21:00 +24°C° 0 mm 2 mps 758 mmHg 51%
    22:00 +24°C° 0 mm 1 mps 758 mmHg 52%
    23:00 +23°C° 0 mm 1 mps 758 mmHg 53%

    Tomorrow, 24 February, Monday

    Time Temperature Precipitation Wind Pressure Humidity
    00:00 +23°C° 0 mm 1 mps 758 mmHg 54%
    01:00 +23°C° 0 mm 1 mps 757 mmHg 55%
    02:00 +22°C° 0 mm 1 mps 757 mmHg 56%
    03:00 +22°C° 0 mm 1 mps 757 mmHg 57%
    04:00 +22°C° 0.1 mm 1 mps 757 mmHg 58%
    05:00 +21°C° 0.1 mm 2 mps 757 mmHg 58%
    06:00 +21°C° 0.1 mm 2 mps 757 mmHg 59%
    07:00 +23°C° 0.1 mm 2 mps 758 mmHg 55%
    08:00 +25°C° 0.1 mm 2 mps 759 mmHg 52%
    09:00 +26°C° 0.1 mm 1 mps 759 mmHg 48%
    10:00 +28°C° 0 mm 2 mps 759 mmHg 44%
    11:00 +29°C° 0 mm 2 mps 759 mmHg 40%
    12:00 +31°C° 0 mm 2 mps 758 mmHg 36%
    13:00 +32°C° 0 mm 2 mps 757 mmHg 34%
    14:00 +32°C° 0 mm 1 mps 756 mmHg 31%
    15:00 +33°C° 0 mm 1 mps 755 mmHg 28%
    16:00 +32°C° 0 mm 1 mps 755 mmHg 31%
    17:00 +31°C° 0 mm 1 mps 754 mmHg 33%
    18:00 +29°C° 0 mm 1 mps 754 mmHg 35%
    19:00 +29°C° 0 mm 1 mps 755 mmHg 37%
    20:00 +28°C° 0 mm 1 mps 755 mmHg 39%
    21:00 +27°C° 0 mm 1 mps 756 mmHg 40%
    22:00 +26°C° 0 mm 1 mps 756 mmHg 44%
    23:00 +25°C° 0 mm 2 mps 756 mmHg 49%

    Day after tomorrow, 25 February, Tuesday

    Time Temperature Precipitation Wind Pressure Humidity
    00:00 +24°C° 0 mm 2 mps 756 mmHg 53%
    01:00 +24°C° 0 mm 2 mps 756 mmHg 54%
    02:00 +24°C° 0 mm 1 mps 756 mmHg 56%
    03:00 +24°C° 0 mm 1 mps 755 mmHg 57%
    04:00 +23°C° 0.2 mm 1 mps 756 mmHg 59%
    05:00 +23°C° 0.2 mm 2 mps 756 mmHg 61%
    06:00 +23°C° 0.2 mm 2 mps 756 mmHg 63%
    07:00 +24°C° 0 mm 3 mps 757 mmHg 60%
    08:00 +25°C° 0 mm 3 mps 758 mmHg 58%
    09:00 +25°C° 0 mm 3 mps 758 mmHg 56%
    10:00 +27°C° 0 mm 3 mps 758 mmHg 51%
    11:00 +28°C° 0 mm 3 mps 758 mmHg 47%
    12:00 +29°C° 0 mm 2 mps 758 mmHg 42%
    13:00 +29°C° 0 mm 3 mps 757 mmHg 41%
    14:00 +30°C° 0 mm 3 mps 756 mmHg 40%
    15:00 +30°C° 0 mm 3 mps 756 mmHg 40%
    16:00 +28°C° 0.4 mm 2 mps 755 mmHg 47%
    17:00 +26°C° 0.4 mm 2 mps 755 mmHg 54%
    18:00 +25°C° 0.4 mm 2 mps 755 mmHg 61%
    19:00 +24°C° 0 mm 2 mps 755 mmHg 61%
    20:00 +24°C° 0 mm 2 mps 756 mmHg 61%
    21:00 +24°C° 0 mm 2 mps 756 mmHg 62%
    22:00 +23°C° 0.2 mm 2 mps 757 mmHg 64%
    23:00 +23°C° 0.2 mm 2 mps 757 mmHg 67%

    26 February, Wednesday

    Time Temperature Precipitation Wind Pressure Humidity
    00:00 +21°C° 0.2 mm 2 mps 757 mmHg 70%
    01:00 +21°C° 0.1 mm 2 mps 757 mmHg 73%
    02:00 +20°C° 0.1 mm 2 mps 757 mmHg 77%
    03:00 +20°C° 0.1 mm 1 mps 756 mmHg 80%
    04:00 +20°C° 0.4 mm 1 mps 757 mmHg 81%
    05:00 +20°C° 0.4 mm 1 mps 757 mmHg 82%
    06:00 +19°C° 0.4 mm 2 mps 757 mmHg 83%
    07:00 +20°C° 0.8 mm 2 mps 757 mmHg 77%
    08:00 +23°C° 0.8 mm 2 mps 758 mmHg 71%
    09:00 +24°C° 0.8 mm 2 mps 759 mmHg 65%
    10:00 +26°C° 0.1 mm 2 mps 758 mmHg 60%
    11:00 +27°C° 0.1 mm 2 mps 758 mmHg 55%
    12:00 +28°C° 0.1 mm 3 mps 758 mmHg 50%
    13:00 +29°C° 0.1 mm 3 mps 757 mmHg 47%
    14:00 +30°C° 0.1 mm 3 mps 756 mmHg 43%
    15:00 +30°C° 0.1 mm 3 mps 755 mmHg 40%
    16:00 +29°C° 0 mm 3 mps 755 mmHg 42%
    17:00 +28°C° 0 mm 3 mps 755 mmHg 43%
    18:00 +27°C° 0 mm 2 mps 755 mmHg 45%
    19:00 +26°C° 0 mm 2 mps 756 mmHg 50%
    20:00 +25°C° 0 mm 2 mps 756 mmHg 56%
    21:00 +23°C° 0 mm 2 mps 757 mmHg 61%
    22:00 +23°C° 0 mm 1 mps 757 mmHg 64%
    23:00 +22°C° 0 mm 1 mps 757 mmHg 67%

    27 February, Thursday

    Time Temperature Precipitation Wind Pressure Humidity
    00:00 +19°C° 0 mm 0 mps 757 mmHg 70%
    01:00 +19°C° 0 mm 0 mps 757 mmHg 71%
    02:00 +19°C° 0 mm 0 mps 756 mmHg 72%
    03:00 +18°C° 0 mm 0 mps 756 mmHg 73%
    04:00 +18°C° 0 mm 0 mps 756 mmHg 73%
    05:00 +20°C° 0 mm 1 mps 756 mmHg 74%
    06:00 +20°C° 0 mm 1 mps 757 mmHg 74%
    07:00 +22°C° 0 mm 1 mps 757 mmHg 66%
    08:00 +24°C° 0 mm 1 mps 758 mmHg 58%
    09:00 +26°C° 0 mm 1 mps 759 mmHg 51%
    10:00 +27°C° 0 mm 1 mps 759 mmHg 44%
    11:00 +29°C° 0 mm 2 mps 758 mmHg 38%
    12:00 +30°C° 0 mm 2 mps 758 mmHg 31%
    13:00 +31°C° 0 mm 2 mps 757 mmHg 29%
    14:00 +31°C° 0 mm 2 mps 756 mmHg 28%
    15:00 +33°C° 0 mm 3 mps 755 mmHg 26%
    16:00 +30°C° 0 mm 3 mps 755 mmHg 30%
    17:00 +29°C° 0 mm 3 mps 755 mmHg 34%
    18:00 +27°C° 0 mm 3 mps 755 mmHg 38%
    19:00 +26°C° 0 mm 3 mps 756 mmHg 41%
    20:00 +25°C° 0 mm 3 mps 757 mmHg 44%
    21:00 +25°C° 0 mm 3 mps 757 mmHg 47%
    22:00 +24°C° 0 mm 3 mps 757 mmHg 49%
    23:00 +24°C° 0 mm 2 mps 757 mmHg 51%

    28 February, Friday

    Time Temperature Precipitation Wind Pressure Humidity
    00:00 +23°C° 0 mm 2 mps 757 mmHg 53%
    01:00 +23°C° 0 mm 2 mps 757 mmHg 55%
    02:00 +22°C° 0 mm 1 mps 757 mmHg 56%
    03:00 +22°C° 0 mm 1 mps 756 mmHg 58%
    04:00 +22°C° 0 mm 1 mps 756 mmHg 59%
    05:00 +21°C° 0 mm 1 mps 756 mmHg 59%
    06:00 +21°C° 0 mm 1 mps 756 mmHg 60%
    07:00 +23°C° 0 mm 2 mps 757 mmHg 55%
    08:00 +25°C° 0 mm 2 mps 757 mmHg 50%
    09:00 +27°C° 0 mm 2 mps 758 mmHg 45%
    10:00 +28°C° 0 mm 2 mps 758 mmHg 41%
    11:00 +29°C° 0 mm 1 mps 757 mmHg 36%
    12:00 +31°C° 0 mm 1 mps 757 mmHg 32%
    13:00 +31°C° 0 mm 2 mps 756 mmHg 30%
    14:00 +32°C° 0 mm 2 mps 755 mmHg 28%
    15:00 +32°C° 0 mm 2 mps 754 mmHg 27%
    16:00 +31°C° 0 mm 2 mps 754 mmHg 30%
    17:00 +29°C° 0 mm 2 mps 754 mmHg 34%
    18:00 +28°C° 0 mm 2 mps 754 mmHg 37%
    19:00 +27°C° 0 mm 2 mps 754 mmHg 39%
    20:00 +26°C° 0 mm 2 mps 754 mmHg 42%
    21:00 +25°C° 0 mm 2 mps 755 mmHg 44%
    22:00 +25°C° 0 mm 2 mps 755 mmHg 45%
    23:00 +24°C° 0 mm 2 mps 755 mmHg 47%
    Show more